Time,TemperatureF,DewpointF,PressureIn,WindDirection,WindDirectionDegrees,WindSpeedMPH,WindSpeedGustMPH,Humidity,HourlyPrecipIn,Conditions,Clouds,dailyrainin,SolarRadiationWatts/m^2,SoftwareType,DateUTC
2013-04-15 00:00:00,52.2,42.3,30.28,East,95,0.0,0.0,69,0.00,,---,0.00,0.00,VWS V14.01,2013-04-14 22:00:00,
2013-04-15 00:10:00,51.7,42.2,30.28,East,95,0.0,0.0,70,0.00,,---,0.00,0.00,VWS V14.01,2013-04-14 22:10:00,
2013-04-15 00:15:00,51.4,42.3,30.28,East,95,0.0,1.0,71,0.00,,---,0.00,0.00,VWS V14.01,2013-04-14 22:15:00,
2013-04-15 00:25:00,50.9,42.2,30.28,East,95,0.0,0.0,72,0.00,,---,0.00,0.00,VWS V14.01,2013-04-14 22:25:00,
2013-04-15 00:35:00,50.4,42.1,30.28,East,95,0.0,1.0,73,0.00,,---,0.00,0.00,VWS V14.01,2013-04-14 22:35:00,
2013-04-15 00:40:00,50.2,41.9,30.28,East,95,0.0,0.0,73,0.00,,---,0.00,0.00,VWS V14.01,2013-04-14 22:40:00,
2013-04-15 00:50:00,50.0,42.7,30.28,East,95,0.0,0.0,76,0.00,,---,0.00,0.00,VWS V14.01,2013-04-14 22:50:00,
2013-04-15 00:55:00,49.9,42.0,30.28,East,95,0.0,0.0,74,0.00,,---,0.00,0.00,VWS V14.01,2013-04-14 22:55:00,
2013-04-15 01:00:00,49.7,41.8,30.28,East,95,0.0,0.0,74,0.00,,---,0.00,0.00,VWS V14.01,2013-04-14 23:00:00,
2013-04-15 01:10:00,49.5,41.6,30.28,East,95,0.0,0.0,74,0.00,,---,0.00,0.00,VWS V14.01,2013-04-14 23:10:00,
2013-04-15 01:20:00,49.0,41.4,30.28,East,95,0.0,0.0,75,0.00,,---,0.00,0.00,VWS V14.01,2013-04-14 23:20:00,
2013-04-15 01:25:00,48.8,41.6,30.28,East,95,0.0,0.0,76,0.00,,---,0.00,0.00,VWS V14.01,2013-04-14 23:25:00,
2013-04-15 01:30:00,48.7,41.5,30.28,East,95,0.0,0.0,76,0.00,,---,0.00,0.00,VWS V14.01,2013-04-14 23:30:00,
2013-04-15 01:35:00,48.7,41.5,30.28,East,95,0.0,0.0,76,0.00,,---,0.00,0.00,VWS V14.01,2013-04-14 23:35:00,
2013-04-15 01:40:00,48.5,41.3,30.28,East,95,0.0,0.0,76,0.00,,---,0.00,0.00,VWS V14.01,2013-04-14 23:40:00,
2013-04-15 01:45:00,48.4,41.5,30.28,East,95,0.0,0.0,77,0.00,,---,0.00,0.00,VWS V14.01,2013-04-14 23:45:00,
2013-04-15 01:50:00,48.4,41.5,30.28,East,95,0.0,0.0,77,0.00,,---,0.00,0.00,VWS V14.01,2013-04-14 23:50:00,
2013-04-15 01:55:00,48.2,41.3,30.28,East,95,0.0,0.0,77,0.00,,---,0.00,0.00,VWS V14.01,2013-04-14 23:55:00,
2013-04-15 02:05:00,48.0,41.2,30.27,East,95,0.0,0.0,77,0.00,,---,0.00,0.00,VWS V14.01,2013-04-15 00:05:00,
2013-04-15 02:15:00,47.8,41.3,30.27,East,95,0.0,0.0,78,0.00,,---,0.00,0.00,VWS V14.01,2013-04-15 00:15:00,
2013-04-15 02:25:00,47.6,41.1,30.27,East,95,0.0,0.0,78,0.00,,---,0.00,0.00,VWS V14.01,2013-04-15 00:25:00,
2013-04-15 02:30:00,47.4,40.9,30.27,East,95,0.0,0.0,78,0.00,,---,0.00,0.00,VWS V14.01,2013-04-15 00:30:00,
2013-04-15 02:35:00,47.3,41.1,30.27,East,95,0.0,0.0,79,0.00,,---,0.00,0.00,VWS V14.01,2013-04-15 00:35:00,
2013-04-15 02:40:00,47.1,40.9,30.27,East,95,0.0,0.0,79,0.00,,---,0.00,0.00,VWS V14.01,2013-04-15 00:40:00,
2013-04-15 02:45:00,46.9,40.7,30.27,East,95,0.0,0.0,79,0.00,,---,0.00,0.00,VWS V14.01,2013-04-15 00:45:00,
2013-04-15 02:50:00,46.7,40.5,30.27,East,95,0.0,0.0,79,0.00,,---,0.00,0.00,VWS V14.01,2013-04-15 00:50:00,
2013-04-15 02:55:00,46.5,40.7,30.27,East,95,0.0,0.0,80,0.00,,---,0.00,0.00,VWS V14.01,2013-04-15 00:55:00,
2013-04-15 03:00:00,46.4,40.6,30.27,East,95,0.0,0.0,80,0.00,,---,0.00,0.00,VWS V14.01,2013-04-15 01:00:00,
2013-04-15 03:05:00,46.3,40.5,30.27,East,95,0.0,0.0,80,0.00,,---,0.00,0.00,VWS V14.01,2013-04-15 01:05:00,
2013-04-15 03:15:00,46.1,40.3,30.27,East,95,0.0,0.0,80,0.00,,---,0.00,0.00,VWS V14.01,2013-04-15 01:15:00,
2013-04-15 03:20:00,46.0,40.5,30.27,East,95,0.0,0.0,81,0.00,,---,0.00,0.00,VWS V14.01,2013-04-15 01:20:00,
2013-04-15 03:25:00,45.9,40.4,30.27,East,95,0.0,0.0,81,0.00,,---,0.00,0.00,VWS V14.01,2013-04-15 01:25:00,
2013-04-15 03:35:00,45.8,40.0,30.27,East,95,0.0,0.0,80,0.00,,---,0.00,0.00,VWS V14.01,2013-04-15 01:35:00,
2013-04-15 03:40:00,45.7,39.9,30.27,East,95,0.0,0.0,80,0.00,,---,0.00,0.00,VWS V14.01,2013-04-15 01:40:00,
2013-04-15 03:50:00,45.5,40.0,30.27,East,95,0.0,0.0,81,0.00,,---,0.00,0.00,VWS V14.01,2013-04-15 01:50:00,
2013-04-15 04:00:00,45.3,39.8,30.27,East,95,0.0,0.0,81,0.00,,---,0.00,0.00,VWS V14.01,2013-04-15 02:00:00,
2013-04-15 04:05:00,45.2,39.7,30.27,East,95,0.0,0.0,81,0.00,,---,0.00,0.00,VWS V14.01,2013-04-15 02:05:00,
2013-04-15 04:10:00,45.2,39.7,30.27,East,95,0.0,0.0,81,0.00,,---,0.00,0.00,VWS V14.01,2013-04-15 02:10:00,
2013-04-15 04:15:00,45.1,39.9,30.27,East,95,0.0,0.0,82,0.00,,---,0.00,0.00,VWS V14.01,2013-04-15 02:15:00,
2013-04-15 04:25:00,45.0,39.8,30.27,East,95,0.0,0.0,82,0.00,,---,0.00,0.00,VWS V14.01,2013-04-15 02:25:00,
2013-04-15 04:30:00,45.0,39.8,30.27,East,95,0.0,0.0,82,0.00,,---,0.00,0.00,VWS V14.01,2013-04-15 02:30:00,
2013-04-15 04:35:00,44.9,39.8,30.27,East,95,0.0,2.0,82,0.00,,---,0.00,0.00,VWS V14.01,2013-04-15 02:35:00,
2013-04-15 04:40:00,44.7,39.5,30.27,East,95,0.0,2.0,82,0.00,,---,0.00,0.00,VWS V14.01,2013-04-15 02:40:00,
2013-04-15 04:45:00,44.6,39.8,30.27,East,95,0.0,2.0,83,0.00,,---,0.00,0.00,VWS V14.01,2013-04-15 02:45:00,
2013-04-15 04:50:00,44.5,39.7,30.27,East,95,1.0,2.0,83,0.00,,---,0.00,0.00,VWS V14.01,2013-04-15 02:50:00,
2013-04-15 04:55:00,44.4,39.6,30.27,East,95,0.0,0.0,83,0.00,,---,0.00,0.00,VWS V14.01,2013-04-15 02:55:00,
2013-04-15 05:00:00,44.3,39.5,30.27,East,95,0.0,1.0,83,0.00,,---,0.00,0.00,VWS V14.01,2013-04-15 03:00:00,
2013-04-15 05:10:00,44.3,39.5,30.27,East,94,0.0,0.0,83,0.00,,---,0.00,0.00,VWS V14.01,2013-04-15 03:10:00,
2013-04-15 05:15:00,44.2,39.4,30.27,East,95,0.0,0.0,83,0.00,,---,0.00,0.00,VWS V14.01,2013-04-15 03:15:00,
2013-04-15 05:25:00,44.2,39.7,30.27,East,95,0.0,0.0,84,0.00,,---,0.00,0.00,VWS V14.01,2013-04-15 03:25:00,
2013-04-15 05:30:00,44.1,39.6,30.27,East,95,0.0,0.0,84,0.00,,---,0.00,0.00,VWS V14.01,2013-04-15 03:30:00,
2013-04-15 05:40:00,44.0,39.5,30.27,East,95,0.0,2.0,84,0.00,,---,0.00,0.00,VWS V14.01,2013-04-15 03:40:00,
2013-04-15 05:45:00,44.0,39.5,30.27,East,95,0.0,0.0,84,0.00,,---,0.00,0.00,VWS V14.01,2013-04-15 03:45:00,
2013-04-15 05:50:00,43.9,39.4,30.27,East,95,0.0,0.0,84,0.00,,---,0.00,0.00,VWS V14.01,2013-04-15 03:50:00,
2013-04-15 05:55:00,43.9,39.4,30.27,East,95,0.0,0.0,84,0.00,,---,0.00,0.00,VWS V14.01,2013-04-15 03:55:00,
2013-04-15 06:00:00,43.8,39.3,30.27,East,95,0.0,0.0,84,0.00,,---,0.00,0.00,VWS V14.01,2013-04-15 04:00:00,
2013-04-15 06:05:00,43.7,39.2,30.27,East,94,0.0,0.0,84,0.00,,---,0.00,0.00,VWS V14.01,2013-04-15 04:05:00,
2013-04-15 06:10:00,43.6,39.1,30.27,East,95,0.0,1.0,84,0.00,,---,0.00,5.00,VWS V14.01,2013-04-15 04:10:00,
2013-04-15 06:15:00,43.5,39.0,30.27,East,95,1.0,2.0,84,0.00,,---,0.00,9.00,VWS V14.01,2013-04-15 04:15:00,
2013-04-15 06:20:00,43.4,38.9,30.27,East,94,0.0,0.0,84,0.00,,---,0.00,12.00,VWS V14.01,2013-04-15 04:20:00,
2013-04-15 06:25:00,43.2,38.7,30.27,East,95,0.0,0.0,84,0.00,,---,0.00,19.00,VWS V14.01,2013-04-15 04:25:00,
2013-04-15 06:30:00,43.2,39.0,30.27,East,95,1.0,3.0,85,0.00,,---,0.00,25.00,VWS V14.01,2013-04-15 04:30:00,
2013-04-15 06:35:00,43.1,38.9,30.27,East,95,0.0,2.0,85,0.00,,---,0.00,25.00,VWS V14.01,2013-04-15 04:35:00,
2013-04-15 06:45:00,43.1,38.9,30.27,East,94,1.0,2.0,85,0.00,,---,0.00,54.00,VWS V14.01,2013-04-15 04:45:00,
2013-04-15 06:50:00,43.2,39.0,30.27,East,95,0.0,0.0,85,0.00,,---,0.00,67.00,VWS V14.01,2013-04-15 04:50:00,
2013-04-15 07:00:00,43.4,39.5,30.27,South,169,2.0,2.0,86,0.00,,---,0.00,88.00,VWS V14.01,2013-04-15 05:00:00,
2013-04-15 07:05:00,43.5,39.3,30.27,South,169,1.0,2.0,85,0.00,,---,0.00,93.00,VWS V14.01,2013-04-15 05:05:00,
2013-04-15 07:15:00,43.8,39.6,30.27,NE,38,0.0,2.0,85,0.00,,---,0.00,130.00,VWS V14.01,2013-04-15 05:15:00,
2013-04-15 07:20:00,44.0,39.8,30.27,NE,40,2.0,2.0,85,0.00,,---,0.00,156.00,VWS V14.01,2013-04-15 05:20:00,
2013-04-15 07:25:00,44.2,40.0,30.27,NE,41,1.0,1.0,85,0.00,,---,0.00,171.00,VWS V14.01,2013-04-15 05:25:00,
2013-04-15 07:30:00,44.5,40.3,30.27,NE,45,0.0,2.0,85,0.00,,---,0.00,172.00,VWS V14.01,2013-04-15 05:30:00,
2013-04-15 07:35:00,44.7,40.5,30.27,NE,49,2.0,3.0,85,0.00,,---,0.00,162.00,VWS V14.01,2013-04-15 05:35:00,
2013-04-15 07:45:00,45.2,40.7,30.27,NE,52,0.0,4.0,84,0.00,,---,0.00,132.00,VWS V14.01,2013-04-15 05:45:00,
2013-04-15 07:50:00,45.4,40.5,30.27,NE,54,2.0,3.0,83,0.00,,---,0.00,155.00,VWS V14.01,2013-04-15 05:50:00,
2013-04-15 07:55:00,45.6,40.7,30.27,NE,54,0.0,2.0,83,0.00,,---,0.00,179.00,VWS V14.01,2013-04-15 05:55:00,
2013-04-15 08:00:00,45.8,40.9,30.27,NE,53,3.0,3.0,83,0.00,,---,0.00,211.00,VWS V14.01,2013-04-15 06:00:00,
2013-04-15 08:05:00,46.2,41.0,30.27,NE,55,1.0,2.0,82,0.00,,---,0.00,248.00,VWS V14.01,2013-04-15 06:05:00,
2013-04-15 08:15:00,46.8,41.3,30.27,ENE,57,0.0,4.0,81,0.00,,---,0.00,287.00,VWS V14.01,2013-04-15 06:15:00,
2013-04-15 08:20:00,47.3,41.8,30.27,ENE,60,0.0,1.0,81,0.00,,---,0.00,308.00,VWS V14.01,2013-04-15 06:20:00,
2013-04-15 08:25:00,47.8,41.9,30.27,East,95,2.0,4.0,80,0.00,,---,0.00,308.00,VWS V14.01,2013-04-15 06:25:00,
2013-04-15 08:35:00,48.7,42.2,30.27,East,86,1.0,3.0,78,0.00,,---,0.00,352.00,VWS V14.01,2013-04-15 06:35:00,
2013-04-15 08:45:00,49.8,42.2,30.27,East,97,5.0,5.0,75,0.00,,---,0.00,378.00,VWS V14.01,2013-04-15 06:45:00,
2013-04-15 08:55:00,50.8,42.8,30.27,ENE,76,0.0,2.0,74,0.00,,---,0.00,403.00,VWS V14.01,2013-04-15 06:55:00,
2013-04-15 09:00:00,51.4,43.0,30.26,East,88,0.0,4.0,73,0.00,,---,0.00,415.00,VWS V14.01,2013-04-15 07:00:00,
2013-04-15 09:05:00,51.8,42.7,30.26,SE,139,0.0,5.0,71,0.00,,---,0.00,427.00,VWS V14.01,2013-04-15 07:05:00,
2013-04-15 09:45:00,55.5,43.9,30.26,ESE,123,0.0,3.0,65,0.00,,---,0.00,522.00,VWS V14.01,2013-04-15 07:45:00,
2013-04-15 09:50:00,56.2,44.2,30.26,East,83,0.0,3.0,64,0.00,,---,0.00,534.00,VWS V14.01,2013-04-15 07:50:00,
2013-04-15 09:55:00,56.8,43.9,30.26,East,82,3.0,5.0,62,0.00,,---,0.00,545.00,VWS V14.01,2013-04-15 07:55:00,
2013-04-15 10:00:00,57.2,44.3,30.26,East,81,0.0,3.0,62,0.00,,---,0.00,557.00,VWS V14.01,2013-04-15 08:00:00,
2013-04-15 10:10:00,58.1,44.3,30.26,East,98,0.0,2.0,60,0.00,,---,0.00,580.00,VWS V14.01,2013-04-15 08:10:00,
2013-04-15 10:20:00,58.8,44.5,30.25,ENE,76,5.0,7.0,59,0.00,,---,0.00,598.00,VWS V14.01,2013-04-15 08:20:00,
2013-04-15 10:25:00,59.0,44.7,30.25,ENE,74,0.0,3.0,59,0.00,,---,0.00,608.00,VWS V14.01,2013-04-15 08:25:00,
2013-04-15 10:30:00,59.3,44.5,30.25,East,82,0.0,2.0,58,0.00,,---,0.00,619.00,VWS V14.01,2013-04-15 08:30:00,
2013-04-15 10:35:00,59.8,45.5,30.25,East,82,0.0,0.0,59,0.00,,---,0.00,626.00,VWS V14.01,2013-04-15 08:35:00,
2013-04-15 10:40:00,60.2,44.9,30.25,East,82,0.0,0.0,57,0.00,,---,0.00,635.00,VWS V14.01,2013-04-15 08:40:00,
2013-04-15 10:45:00,60.5,45.2,30.25,NE,44,3.0,6.0,57,0.00,,---,0.00,643.00,VWS V14.01,2013-04-15 08:45:00,
2013-04-15 10:50:00,60.8,45.0,30.25,NE,46,0.0,2.0,56,0.00,,---,0.00,642.00,VWS V14.01,2013-04-15 08:50:00,
2013-04-15 10:55:00,61.2,45.4,30.25,ENE,72,0.0,1.0,56,0.00,,---,0.00,629.00,VWS V14.01,2013-04-15 08:55:00,
2013-04-15 11:00:00,61.5,45.2,30.24,ENE,72,0.0,0.0,55,0.00,,---,0.00,656.00,VWS V14.01,2013-04-15 09:00:00,
2013-04-15 11:10:00,61.6,45.3,30.24,NW,315,1.0,1.0,55,0.00,,---,0.00,677.00,VWS V14.01,2013-04-15 09:10:00,
2013-04-15 11:15:00,62.0,45.2,30.24,SW,229,0.0,4.0,54,0.00,,---,0.00,680.00,VWS V14.01,2013-04-15 09:15:00,
2013-04-15 11:20:00,61.9,45.1,30.24,SSW,201,0.0,1.0,54,0.00,,---,0.00,694.00,VWS V14.01,2013-04-15 09:20:00,
2013-04-15 11:25:00,62.5,44.7,30.24,NE,56,0.0,3.0,52,0.00,,---,0.00,707.00,VWS V14.01,2013-04-15 09:25:00,
2013-04-15 11:30:00,63.2,44.3,30.22,ENE,60,0.0,1.0,50,0.00,,---,0.00,705.00,VWS V14.01,2013-04-15 09:30:00,
2013-04-15 11:35:00,64.4,44.8,30.22,SSE,160,0.0,6.0,49,0.00,,---,0.00,721.00,VWS V14.01,2013-04-15 09:35:00,
2013-04-15 11:40:00,65.2,44.5,30.22,East,88,5.0,13.0,47,0.00,,---,0.00,728.00,VWS V14.01,2013-04-15 09:40:00,
2013-04-15 11:50:00,64.3,43.7,30.22,SE,145,7.0,11.0,47,0.00,,---,0.00,733.00,VWS V14.01,2013-04-15 09:50:00,
2013-04-15 11:55:00,64.1,42.9,30.22,SE,134,6.0,11.0,46,0.00,,---,0.00,738.00,VWS V14.01,2013-04-15 09:55:00,
2013-04-15 12:05:00,65.6,44.3,30.22,ESE,107,4.0,4.0,46,0.00,,---,0.00,751.00,VWS V14.01,2013-04-15 10:05:00,
2013-04-15 12:10:00,64.8,44.1,30.22,SSE,150,3.0,11.0,47,0.00,,---,0.00,752.00,VWS V14.01,2013-04-15 10:10:00,
2013-04-15 12:15:00,64.7,44.0,30.22,ESE,123,0.0,7.0,47,0.00,,---,0.00,749.00,VWS V14.01,2013-04-15 10:15:00,
2013-04-15 12:25:00,65.6,44.3,30.22,ESE,104,0.0,4.0,46,0.00,,---,0.00,756.00,VWS V14.01,2013-04-15 10:25:00,
2013-04-15 12:30:00,64.8,43.6,30.22,ESE,113,9.0,10.0,46,0.00,,---,0.00,754.00,VWS V14.01,2013-04-15 10:30:00,
2013-04-15 12:35:00,65.4,44.1,30.22,SE,132,9.0,10.0,46,0.00,,---,0.00,758.00,VWS V14.01,2013-04-15 10:35:00,
2013-04-15 12:40:00,65.6,43.7,30.22,ESE,121,7.0,10.0,45,0.00,,---,0.00,756.00,VWS V14.01,2013-04-15 10:40:00,
2013-04-15 12:45:00,65.0,44.3,30.22,SW,223,0.0,4.0,47,0.00,,---,0.00,758.00,VWS V14.01,2013-04-15 10:45:00,
2013-04-15 12:50:00,66.1,44.2,30.22,SE,126,6.0,12.0,45,0.00,,---,0.00,761.00,VWS V14.01,2013-04-15 10:50:00,
2013-04-15 12:55:00,65.4,43.5,30.22,SSW,199,1.0,7.0,45,0.00,,---,0.00,759.00,VWS V14.01,2013-04-15 10:55:00,
2013-04-15 13:00:00,65.7,44.4,30.21,ESE,112,5.0,10.0,46,0.00,,---,0.00,759.00,VWS V14.01,2013-04-15 11:00:00,
2013-04-15 13:10:00,66.4,44.4,30.21,SSE,153,5.0,10.0,45,0.00,,---,0.00,758.00,VWS V14.01,2013-04-15 11:10:00,
2013-04-15 13:15:00,66.4,43.8,30.21,ESE,105,12.0,13.0,44,0.00,,---,0.00,756.00,VWS V14.01,2013-04-15 11:15:00,
2013-04-15 13:20:00,65.8,43.9,30.21,SSE,159,4.0,11.0,45,0.00,,---,0.00,752.00,VWS V14.01,2013-04-15 11:20:00,
2013-04-15 13:25:00,66.4,45.0,30.21,SSE,155,6.0,10.0,46,0.00,,---,0.00,752.00,VWS V14.01,2013-04-15 11:25:00,
2013-04-15 13:30:00,67.0,44.4,30.21,SSE,155,1.0,1.0,44,0.00,,---,0.00,747.00,VWS V14.01,2013-04-15 11:30:00,
2013-04-15 13:35:00,67.7,45.0,30.21,SSW,196,9.0,9.0,44,0.00,,---,0.00,747.00,VWS V14.01,2013-04-15 11:35:00,
2013-04-15 13:45:00,68.0,44.7,30.20,ESE,111,5.0,5.0,43,0.00,,---,0.00,737.00,VWS V14.01,2013-04-15 11:45:00,
2013-04-15 13:50:00,67.9,44.6,30.20,ESE,118,5.0,6.0,43,0.00,,---,0.00,731.00,VWS V14.01,2013-04-15 11:50:00,
2013-04-15 13:55:00,68.2,44.3,30.20,SSE,147,4.0,12.0,42,0.00,,---,0.00,731.00,VWS V14.01,2013-04-15 11:55:00,
2013-04-15 14:05:00,68.1,44.2,30.19,South,171,6.0,10.0,42,0.00,,---,0.00,729.00,VWS V14.01,2013-04-15 12:05:00,
2013-04-15 14:10:00,67.7,43.8,30.19,SW,233,3.0,13.0,42,0.00,,---,0.00,724.00,VWS V14.01,2013-04-15 12:10:00,
2013-04-15 14:15:00,67.9,44.0,30.19,SE,128,5.0,10.0,42,0.00,,---,0.00,717.00,VWS V14.01,2013-04-15 12:15:00,
2013-04-15 14:20:00,68.1,43.5,30.19,West,265,3.0,6.0,41,0.00,,---,0.00,710.00,VWS V14.01,2013-04-15 12:20:00,
2013-04-15 14:30:00,68.4,44.4,30.17,ESE,113,1.0,5.0,42,0.00,,---,0.00,698.00,VWS V14.01,2013-04-15 12:30:00,
2013-04-15 14:35:00,68.5,44.5,30.17,South,186,11.0,15.0,42,0.00,,---,0.00,691.00,VWS V14.01,2013-04-15 12:35:00,
2013-04-15 14:45:00,69.7,44.3,30.17,ESE,120,10.0,13.0,40,0.00,,---,0.00,682.00,VWS V14.01,2013-04-15 12:45:00,
2013-04-15 14:50:00,68.8,43.5,30.17,East,92,0.0,6.0,40,0.00,,---,0.00,677.00,VWS V14.01,2013-04-15 12:50:00,
2013-04-15 14:55:00,68.0,42.8,30.17,SE,133,1.0,4.0,40,0.00,,---,0.00,670.00,VWS V14.01,2013-04-15 12:55:00,
2013-04-15 15:00:00,69.6,43.6,30.16,ESE,115,4.0,7.0,39,0.00,,---,0.00,663.00,VWS V14.01,2013-04-15 13:00:00,
2013-04-15 15:10:00,69.4,43.4,30.16,ESE,119,5.0,11.0,39,0.00,,---,0.00,645.00,VWS V14.01,2013-04-15 13:10:00,
2013-04-15 15:20:00,68.8,42.9,30.16,South,183,10.0,10.0,39,0.00,,---,0.00,624.00,VWS V14.01,2013-04-15 13:20:00,
2013-04-15 15:25:00,69.5,42.8,30.16,East,93,4.0,7.0,38,0.00,,---,0.00,617.00,VWS V14.01,2013-04-15 13:25:00,
2013-04-15 15:30:00,69.3,43.3,30.16,SSW,213,6.0,10.0,39,0.00,,---,0.00,608.00,VWS V14.01,2013-04-15 13:30:00,
2013-04-15 15:40:00,69.8,42.4,30.16,SSW,200,3.0,8.0,37,0.00,,---,0.00,592.00,VWS V14.01,2013-04-15 13:40:00,
2013-04-15 15:45:00,68.7,42.1,30.15,SE,128,7.0,10.0,38,0.00,,---,0.00,589.00,VWS V14.01,2013-04-15 13:45:00,
2013-04-15 15:50:00,68.7,42.1,30.15,East,93,4.0,12.0,38,0.00,,---,0.00,559.00,VWS V14.01,2013-04-15 13:50:00,
2013-04-15 15:55:00,69.4,42.7,30.15,ESE,118,8.0,12.0,38,0.00,,---,0.00,561.00,VWS V14.01,2013-04-15 13:55:00,
2013-04-15 16:00:00,69.5,42.8,30.14,East,101,7.0,15.0,38,0.00,,---,0.00,559.00,VWS V14.01,2013-04-15 14:00:00,
2013-04-15 16:10:00,69.1,42.5,30.14,ESE,110,4.0,14.0,38,0.00,,---,0.00,541.00,VWS V14.01,2013-04-15 14:10:00,
2013-04-15 16:15:00,68.7,42.1,30.14,ESE,112,5.0,11.0,38,0.00,,---,0.00,76.00,VWS V14.01,2013-04-15 14:15:00,
2013-04-15 16:20:00,68.6,42.7,30.14,SSW,200,0.0,5.0,39,0.00,,---,0.00,70.00,VWS V14.01,2013-04-15 14:20:00,
2013-04-15 16:25:00,68.5,42.6,30.14,ESE,119,6.0,10.0,39,0.00,,---,0.00,83.00,VWS V14.01,2013-04-15 14:25:00,
2013-04-15 16:30:00,68.1,42.2,30.13,East,91,2.0,4.0,39,0.00,,---,0.00,142.00,VWS V14.01,2013-04-15 14:30:00,
2013-04-15 16:35:00,68.7,42.8,30.13,SSE,155,2.0,10.0,39,0.00,,---,0.00,487.00,VWS V14.01,2013-04-15 14:35:00,
2013-04-15 16:45:00,69.2,42.5,30.13,ESE,118,8.0,10.0,38,0.00,,---,0.00,83.00,VWS V14.01,2013-04-15 14:45:00,
2013-04-15 16:50:00,68.8,42.2,30.13,SE,128,3.0,5.0,38,0.00,,---,0.00,100.00,VWS V14.01,2013-04-15 14:50:00,
2013-04-15 16:55:00,68.4,42.5,30.13,SE,136,3.0,6.0,39,0.00,,---,0.00,399.00,VWS V14.01,2013-04-15 14:55:00,
2013-04-15 17:00:00,68.5,42.6,30.13,East,98,5.0,12.0,39,0.00,,---,0.00,401.00,VWS V14.01,2013-04-15 15:00:00,
2013-04-15 17:10:00,69.2,42.5,30.13,SE,132,8.0,11.0,38,0.00,,---,0.00,204.00,VWS V14.01,2013-04-15 15:10:00,
2013-04-15 17:15:00,69.1,42.5,30.12,ESE,107,6.0,10.0,38,0.00,,---,0.00,366.00,VWS V14.01,2013-04-15 15:15:00,
2013-04-15 17:25:00,69.1,42.5,30.12,SE,139,7.0,15.0,38,0.00,,---,0.00,135.00,VWS V14.01,2013-04-15 15:25:00,
2013-04-15 17:35:00,69.4,42.7,30.12,ESE,118,1.0,10.0,38,0.00,,---,0.00,304.00,VWS V14.01,2013-04-15 15:35:00,
2013-04-15 17:40:00,68.9,42.3,30.12,ESE,115,3.0,12.0,38,0.00,,---,0.00,190.00,VWS V14.01,2013-04-15 15:40:00,
2013-04-15 17:45:00,68.5,41.9,30.11,SSE,150,4.0,7.0,38,0.00,,---,0.00,135.00,VWS V14.01,2013-04-15 15:45:00,
2013-04-15 17:50:00,68.4,41.8,30.11,SE,138,4.0,11.0,38,0.00,,---,0.00,251.00,VWS V14.01,2013-04-15 15:50:00,
2013-04-15 17:55:00,68.7,42.1,30.11,SSW,210,4.0,12.0,38,0.00,,---,0.00,95.00,VWS V14.01,2013-04-15 15:55:00,
2013-04-15 18:05:00,68.0,41.5,30.12,ESE,123,4.0,11.0,38,0.00,,---,0.00,98.00,VWS V14.01,2013-04-15 16:05:00,
2013-04-15 18:10:00,67.8,41.3,30.12,SSE,157,4.0,16.0,38,0.00,,---,0.00,95.00,VWS V14.01,2013-04-15 16:10:00,
2013-04-15 18:15:00,67.6,41.1,30.11,SE,137,3.0,7.0,38,0.00,,---,0.00,93.00,VWS V14.01,2013-04-15 16:15:00,
2013-04-15 18:20:00,67.5,41.0,30.11,SE,129,4.0,9.0,38,0.00,,---,0.00,91.00,VWS V14.01,2013-04-15 16:20:00,
2013-04-15 18:30:00,67.4,40.9,30.12,ESE,114,6.0,13.0,38,0.00,,---,0.00,84.00,VWS V14.01,2013-04-15 16:30:00,
2013-04-15 18:35:00,67.3,40.8,30.12,SE,126,6.0,10.0,38,0.00,,---,0.00,97.00,VWS V14.01,2013-04-15 16:35:00,
2013-04-15 18:40:00,67.0,40.6,30.12,SE,136,5.0,12.0,38,0.00,,---,0.00,91.00,VWS V14.01,2013-04-15 16:40:00,
2013-04-15 18:50:00,66.8,40.4,30.12,SE,129,5.0,12.0,38,0.00,,---,0.00,65.00,VWS V14.01,2013-04-15 16:50:00,
2013-04-15 19:00:00,66.5,40.1,30.12,South,185,2.0,5.0,38,0.00,,---,0.00,46.00,VWS V14.01,2013-04-15 17:00:00,
2013-04-15 19:05:00,66.4,40.0,30.12,SE,146,0.0,3.0,38,0.00,,---,0.00,35.00,VWS V14.01,2013-04-15 17:05:00,
2013-04-15 19:10:00,66.4,40.7,30.12,SSE,149,2.0,5.0,39,0.00,,---,0.00,30.00,VWS V14.01,2013-04-15 17:10:00,
2013-04-15 19:15:00,66.4,40.7,30.13,ESE,103,4.0,5.0,39,0.00,,---,0.00,26.00,VWS V14.01,2013-04-15 17:15:00,
2013-04-15 19:25:00,66.1,40.5,30.13,SE,135,0.0,2.0,39,0.00,,---,0.00,19.00,VWS V14.01,2013-04-15 17:25:00,
2013-04-15 19:30:00,66.0,40.4,30.13,SE,134,0.0,4.0,39,0.00,,---,0.00,14.00,VWS V14.01,2013-04-15 17:30:00,
2013-04-15 19:35:00,65.7,40.7,30.13,SE,135,1.0,4.0,40,0.00,,---,0.00,12.00,VWS V14.01,2013-04-15 17:35:00,
2013-04-15 19:40:00,65.6,40.7,30.13,SE,135,0.0,1.0,40,0.00,,---,0.00,7.00,VWS V14.01,2013-04-15 17:40:00,
2013-04-15 19:45:00,65.4,40.5,30.13,SE,134,2.0,5.0,40,0.00,,---,0.00,5.00,VWS V14.01,2013-04-15 17:45:00,
2013-04-15 19:55:00,65.0,40.8,30.13,SE,129,5.0,5.0,41,0.00,,---,0.00,0.00,VWS V14.01,2013-04-15 17:55:00,
2013-04-15 20:00:00,64.8,40.6,30.13,SE,128,0.0,3.0,41,0.00,,---,0.00,0.00,VWS V14.01,2013-04-15 18:00:00,
2013-04-15 20:10:00,64.3,40.7,30.13,SE,125,3.0,4.0,42,0.00,,---,0.00,0.00,VWS V14.01,2013-04-15 18:10:00,
2013-04-15 20:15:00,64.2,40.7,30.13,SE,124,0.0,3.0,42,0.00,,---,0.00,0.00,VWS V14.01,2013-04-15 18:15:00,
2013-04-15 20:20:00,63.9,40.4,30.13,ESE,123,0.0,3.0,42,0.00,,---,0.00,0.00,VWS V14.01,2013-04-15 18:20:00,
2013-04-15 20:25:00,63.6,40.1,30.13,SE,124,0.0,1.0,42,0.00,,---,0.00,0.00,VWS V14.01,2013-04-15 18:25:00,
2013-04-15 20:30:00,63.4,39.9,30.13,SE,124,0.0,2.0,42,0.00,,---,0.00,0.00,VWS V14.01,2013-04-15 18:30:00,
2013-04-15 20:35:00,63.2,39.8,30.13,SE,124,3.0,4.0,42,0.00,,---,0.00,0.00,VWS V14.01,2013-04-15 18:35:00,
2013-04-15 20:40:00,63.0,39.6,30.13,SE,126,0.0,4.0,42,0.00,,---,0.00,0.00,VWS V14.01,2013-04-15 18:40:00,
2013-04-15 20:45:00,62.8,40.0,30.13,SE,126,0.0,1.0,43,0.00,,---,0.00,0.00,VWS V14.01,2013-04-15 18:45:00,
2013-04-15 20:50:00,62.7,39.9,30.13,SE,126,0.0,3.0,43,0.00,,---,0.00,0.00,VWS V14.01,2013-04-15 18:50:00,
2013-04-15 20:55:00,62.5,39.7,30.13,SE,135,6.0,6.0,43,0.00,,---,0.00,0.00,VWS V14.01,2013-04-15 18:55:00,
2013-04-15 21:00:00,62.3,39.5,30.14,SE,134,3.0,4.0,43,0.00,,---,0.00,0.00,VWS V14.01,2013-04-15 19:00:00,
2013-04-15 21:05:00,62.2,39.5,30.14,SE,134,2.0,2.0,43,0.00,,---,0.00,0.00,VWS V14.01,2013-04-15 19:05:00,
2013-04-15 21:10:00,62.0,39.9,30.14,SE,142,0.0,7.0,44,0.00,,---,0.00,0.00,VWS V14.01,2013-04-15 19:10:00,
2013-04-15 21:15:00,61.6,39.5,30.14,ESE,121,5.0,5.0,44,0.00,,---,0.00,0.00,VWS V14.01,2013-04-15 19:15:00,
2013-04-15 21:20:00,61.3,39.8,30.14,SE,129,6.0,6.0,45,0.00,,---,0.00,0.00,VWS V14.01,2013-04-15 19:20:00,
2013-04-15 21:25:00,61.0,39.5,30.14,SE,130,3.0,5.0,45,0.00,,---,0.00,0.00,VWS V14.01,2013-04-15 19:25:00,
2013-04-15 21:30:00,60.7,39.8,30.14,SE,139,2.0,6.0,46,0.00,,---,0.00,0.00,VWS V14.01,2013-04-15 19:30:00,
2013-04-15 21:35:00,60.5,39.6,30.14,SE,146,2.0,6.0,46,0.00,,---,0.00,0.00,VWS V14.01,2013-04-15 19:35:00,
2013-04-15 21:40:00,60.4,39.5,30.14,SE,146,0.0,0.0,46,0.00,,---,0.00,0.00,VWS V14.01,2013-04-15 19:40:00,
2013-04-15 21:45:00,60.2,39.4,30.15,SE,146,2.0,3.0,46,0.00,,---,0.00,0.00,VWS V14.01,2013-04-15 19:45:00,
2013-04-15 21:55:00,59.8,39.5,30.15,SE,145,0.0,0.0,47,0.00,,---,0.00,0.00,VWS V14.01,2013-04-15 19:55:00,
2013-04-15 22:00:00,59.5,39.8,30.14,SE,128,2.0,5.0,48,0.00,,---,0.00,0.00,VWS V14.01,2013-04-15 20:00:00,
2013-04-15 22:05:00,59.2,39.5,30.14,SE,126,2.0,3.0,48,0.00,,---,0.00,0.00,VWS V14.01,2013-04-15 20:05:00,
2013-04-15 22:10:00,59.0,39.9,30.14,SE,126,0.0,2.0,49,0.00,,---,0.00,0.00,VWS V14.01,2013-04-15 20:10:00,
2013-04-15 22:15:00,59.0,39.9,30.14,SE,126,0.0,1.0,49,0.00,,---,0.00,0.00,VWS V14.01,2013-04-15 20:15:00,
2013-04-15 22:20:00,58.9,39.8,30.14,SE,126,2.0,4.0,49,0.00,,---,0.00,0.00,VWS V14.01,2013-04-15 20:20:00,
2013-04-15 22:30:00,58.4,39.8,30.14,SE,126,2.0,2.0,50,0.00,,---,0.00,0.00,VWS V14.01,2013-04-15 20:30:00,
2013-04-15 22:35:00,58.2,39.7,30.14,SE,126,0.0,1.0,50,0.00,,---,0.00,0.00,VWS V14.01,2013-04-15 20:35:00,
2013-04-15 22:40:00,58.0,39.5,30.14,SE,125,0.0,0.0,50,0.00,,---,0.00,0.00,VWS V14.01,2013-04-15 20:40:00,
2013-04-15 22:45:00,57.8,39.8,30.14,SE,126,0.0,0.0,51,0.00,,---,0.00,0.00,VWS V14.01,2013-04-15 20:45:00,
2013-04-15 22:50:00,57.7,39.7,30.14,SE,126,0.0,0.0,51,0.00,,---,0.00,0.00,VWS V14.01,2013-04-15 20:50:00,
2013-04-15 22:55:00,57.5,39.5,30.14,SE,125,0.0,1.0,51,0.00,,---,0.00,0.00,VWS V14.01,2013-04-15 20:55:00,
2013-04-15 23:00:00,57.4,39.4,30.14,SE,126,0.0,2.0,51,0.00,,---,0.00,0.00,VWS V14.01,2013-04-15 21:00:00,
2013-04-15 23:05:00,57.3,39.3,30.14,SE,126,0.0,1.0,51,0.00,,---,0.00,0.00,VWS V14.01,2013-04-15 21:05:00,
2013-04-15 23:10:00,57.1,39.7,30.14,SE,126,0.0,1.0,52,0.00,,---,0.00,0.00,VWS V14.01,2013-04-15 21:10:00,
2013-04-15 23:15:00,56.9,39.5,30.14,SE,126,0.0,1.0,52,0.00,,---,0.00,0.00,VWS V14.01,2013-04-15 21:15:00,
2013-04-15 23:25:00,56.5,39.1,30.14,SE,126,0.0,1.0,52,0.00,,---,0.00,0.00,VWS V14.01,2013-04-15 21:25:00,
2013-04-15 23:30:00,56.4,39.0,30.14,SE,125,0.0,0.0,52,0.00,,---,0.00,0.00,VWS V14.01,2013-04-15 21:30:00,
2013-04-15 23:35:00,56.3,38.9,30.14,SE,126,0.0,3.0,52,0.00,,---,0.00,0.00,VWS V14.01,2013-04-15 21:35:00,
2013-04-15 23:45:00,56.1,38.7,30.14,SE,126,1.0,2.0,52,0.00,,---,0.00,0.00,VWS V14.01,2013-04-15 21:45:00,
2013-04-15 23:50:00,56.0,38.6,30.14,SE,125,2.0,3.0,52,0.00,,---,0.00,0.00,VWS V14.01,2013-04-15 21:50:00,